Location: *
(41.7492°S, 135.4150°W)
Time: 00:38:50
(UTC+00:00)

Envisat - Pass Details

Date: 20 September 2021
Orbit: 764 x 766 km, 98.2° (Epoch: 25 October)

Event Time Altitude Azimuth Distance (km) Brightness Sun altitude
Rises 14:07:51 0° 348° (NNW) 3,222 6.0 -9.3°
Reaches altitude 10° 14:10:23 10° 337° (NNW) 2,305 5.2 -8.9°
Maximum altitude 14:14:51 31° 276° (W) 1,341 3.7 -8.0°
Drops below altitude 10° 14:19:24 10° 214° (SSW) 2,334 5.2 -7.2°
Sets 14:21:59 0° 203° (SSW) 3,269 6.1 -6.7°
